Temperature
9 9 9 8 8 8 8 8 8 8 8 8 8 8 9 9 9 9 9 9 9 9 9 9 9 9 9 9 9 9 9 9 9 8 7 7 7 7 7 7 7 7 7
8 8 8 8 8 8 8 8 8 8 8 7 8 8 8 8 8 8 8 8 8 8 8 8 8 8 8 8 9 9 8 8 8 8 7 7 7 7 7 7 7 7 7
7 7 7 7 7 7 7 7 7 7 7 7 7 7 7 7 7 7 7 7 7 7 7 7 7 8 8 8 8 8 8 8 8 7 7 7 7 7 7 7 7 7 7
6 6 6 6 6 6 6 6 6 6 6 6 6 6 6 6 6 6 6 7 7 7 7 6 7 7 7 7 7 7 7 7 7 7 7 7 7 7 7 7 6 6 6
6 6 6 6 6 6 6 6 6 6 6 6 6 6 6 6 6 6 6 6 6 6 6 6 6 6 7 7 7 7 7 7 7 7 6 6 6 6 6 6 6 6 6
5 5 5 5 5 5 5 5 5 6 6 6 6 6 6 6 6 6 6 6 6 6 6 6 6 6 6 6 6 7 7 7 7 6 6 6 6 6 6 6 6 6 6
5 5 5 5 5 5 5 5 5 5 5 5 5 5 5 5 5 6 6 6 6 6 6 6 6 6 6 6 6 6 6 6 6 6 6 6 6 6 6 6 6 6 6
5 5 5 5 5 5 5 5 5 5 5 5 5 5 5 5 5 5 6 6 5 5 5 6 6 6 6 6 6 6 6 6 6 6 6 6 6 6 6 6 6 6 6
5 5 5 5 5 5 5 5 5 5 5 5 5 5 5 5 5 5 5 5 5 5 5 5 5 6 6 6 6 6 6 6 6 6 6 6 6 6 6 6 6 6 6
5 5 5 5 5 5 5 5 5 5 5 5 5 5 5 5 5 5 5 5 5 5 5 5 5 5 5 5 6 6 6 6 6 6 6 6 6 6 6 6 6 6 6
5 5 5 5 5 5 5 5 5 5 5 5 5 5 5 5 5 5 5 5 5 5 5 5 5 5 5 5 5 6 6 6 6 6 6 6 6 6 6 6 6 6 6
5 5 5 5 5 5 5 5 5 5 5 5 5 5 5 5 5 5 5 5 5 5 5 5 5 5 5 5 5 5 5 6 6 6 6 6 6 6 6 6 6 6 6
5 5 5 5 5 5 5 5 5 5 5 5 5 5 5 5 5 5 5 5 5 5 5 5 5 5 5 5 5 5 5 6 6 6 6 6 6 6 6 6 6 6 6
5 5 5 5 5 5 5 5 5 5 5 5 5 5 5 5 5 4 5 5 5 5 5 5 5 5 5 5 5 5 5 5 5 6 6 6 6 6 6 6 6 6 6
5 5 5 5 5 5 5 5 5 5 5 5 5 5 5 5 4 5 5 5 5 5 5 5 5 5 5 5 5 5 5 5 5 5 5 6 6 6 6 6 6 6 6
6 6 6 6 6 5 5 5 5 5 5 5 5 5 5 5 5 5 5 5 5 5 5 5 5 5 5 5 5 5 5 5 5 5 5 5 6 6 6 6 6 6 6
6 6 6 6 6 6 6 6 6 5 5 5 5 5 5 5 5 5 5 5 5 5 5 5 5 5 5 5 5 5 5 5 5 5 5 5 5 5 6 6 6 6 6
6 6 6 6 6 6 6 6 6 6 6 5 5 5 5 5 5 5 5 5 5 5 5 5 5 5 5 5 5 5 5 5 5 5 5 5 5 5 5 6 6 6 6
6 7 7 7 6 6 6 6 6 6 6 6 6 5 5 5 5 5 5 5 5 5 5 5 5 5 5 5 5 5 5 5 5 5 5 5 5 5 5 6 6 6 6
7 7 7 7 7 7 7 7 7 6 6 6 6 6 6 6 6 6 5 5 5 5 5 5 5 5 5 5 5 5 5 4 4 5 5 5 5 5 5 5 6 6 6
7 7 7 7 7 7 7 7 7 7 7 7 6 6 6 6 6 6 6 5 5 5 5 5 5 5 5 5 4 4 4 4 4 4 4 5 5 5 5 5 6 6 6
7 8 8 8 8 8 8 7 7 7 7 7 7 7 6 6 6 6 6 6 5 5 5 5 5 5 4 4 4 4 4 4 4 4 4 5 5 5 5 5 6 6 6
8 8 8 8 8 8 8 8 8 8 8 7 7 7 7 7 6 6 6 6 6 5 5 5 5 5 4 4 4 4 4 4 4 4 4 5 5 5 5 5 5 6 6
8 8 8 8 8 8 8 8 8 8 8 8 8 8 7 7 7 7 6 6 6 5 5 5 5 5 5 4 4 4 4 4 4 4 4 5 5 5 5 5 5 6 6
8 9 9 9 9 9 9 9 9 9 8 8 8 8 8 7 7 7 7 6 6 6 5 5 5 5 5 5 5 5 4 4 5 5 5 5 5 5 5 5 5 6 6
9 9 9 9 9 9 9 9 9 9 9 9 8 8 8 8 8 7 7 7 6 6 6 5 5 5 5 5 5 5 5 5 5 5 5 5 5 5 5 5 5 6 6
Wind_Speed
7 7 7 6 6 6 6 6 6 6 6 6 6 7 8 8 7 8 8 8 9 9 8 8 8 7 6 5 5 5 5 5 7 2 1 1 1 1 2 3 4 5 7
6 7 7 7 7 7 7 6 6 7 7 7 7 8 8 8 8 8 8 8 9 9 8 9 8 8 9 6 6 6 5 5 6 5 1 1 0 1 0 1 1 2 5
6 7 7 7 7 7 6 6 7 7 7 7 8 8 8 8 8 8 8 8 8 8 8 8 8 9 9 7 7 6 5 6 5 5 2 1 1 1 2 2 2 2 2
6 6 7 6 6 6 6 7 7 7 8 8 8 8 8 8 8 7 8 8 8 7 7 7 7 7 7 7 7 6 6 7 6 5 4 3 3 2 3 2 2 2 2
5 6 6 5 5 6 7 7 7 8 8 8 9 8 8 7 6 7 7 7 7 7 7 7 7 8 8 7 6 5 6 5 5 5 3 3 3 3 2 1 1 2 2
5 5 5 5 6 6 6 6 7 7 8 8 8 8 8 6 8 10 7 6 6 7 7 6 7 8 9 10 9 7 6 6 5 4 3 2 0 0 0 1 1 2 2
5 5 5 5 5 5 6 6 6 6 7 7 7 8 7 7 10 10 9 6 6 6 6 6 6 7 8 6 7 9 7 5 5 5 4 3 2 2 1 1 1 1 2
4 4 4 5 5 5 6 6 6 5 6 6 6 6 6 8 11 10 10 7 7 6 6 6 6 6 6 5 6 7 6 4 2 2 3 3 3 3 3 2 2 1 2
4 4 4 4 5 5 5 5 4 5 5 5 5 6 6 6 10 10 9 6 7 7 6 5 6 6 8 9 7 6 6 5 5 3 1 3 4 5 5 2 2 3 2
4 4 4 4 5 5 4 4 3 4 5 5 5 5 5 6 9 10 9 6 6 5 5 5 6 6 7 8 5 5 4 4 5 5 5 3 2 2 4 4 3 2 1
4 4 4 4 4 4 4 3 4 5 6 5 5 4 5 5 7 10 9 5 4 4 3 3 3 5 7 6 5 2 1 3 3 3 3 3 3 2 2 3 5 4 3
4 5 4 4 3 5 5 4 4 5 6 5 5 5 4 5 6 7 9 7 5 4 2 1 2 5 6 5 3 3 4 4 3 4 4 3 3 3 3 5 4 7 8
5 5 5 6 5 5 5 5 5 5 4 3 4 3 3 4 5 9 10 9 8 4 1 3 4 5 5 4 5 6 4 4 3 3 2 2 3 3 3 4 4 4 5
5 4 5 6 6 6 5 4 4 4 3 3 4 3 2 3 4 4 4 5 7 5 4 5 6 6 4 4 4 4 3 2 2 1 2 3 3 3 3 2 2 3 3
4 4 5 5 6 6 5 4 4 2 3 5 4 4 4 2 1 2 2 3 3 3 3 3 4 4 4 4 3 3 3 3 3 2 2 3 3 3 3 2 2 2 2
4 3 3 4 4 4 5 4 7 4 6 6 6 5 2 3 2 2 4 4 4 4 4 3 3 2 2 2 2 2 2 2 2 2 2 2 3 3 3 3 2 1 2
4 3 3 3 4 4 3 4 2 4 5 5 4 4 3 2 0 2 5 6 4 3 3 2 1 1 1 1 1 1 1 2 2 2 2 3 3 3 3 3 3 3 3
3 3 4 3 4 4 4 4 3 3 1 2 2 2 2 2 2 3 5 6 4 4 1 0 0 0 0 0 1 1 1 2 2 2 3 3 3 3 3 4 4 3 3
3 2 2 3 3 4 4 4 4 4 3 2 1 3 4 4 4 4 2 2 1 1 1 0 1 1 0 0 0 1 1 2 2 2 3 3 3 3 3 4 5 6 4
2 3 3 3 3 3 3 4 4 4 4 3 3 3 2 0 1 2 0 1 1 1 1 1 1 1 1 1 1 1 2 2 2 2 2 3 3 3 4 5 5 4 4
2 2 2 2 2 3 4 4 4 4 4 4 5 5 6 3 3 3 2 2 3 3 2 2 1 1 1 2 2 2 3 2 2 2 2 3 4 4 4 4 5 4 4
2 2 2 2 2 3 4 4 4 5 6 6 4 4 7 4 3 3 4 4 4 3 4 3 2 2 2 3 3 3 2 1 1 1 2 3 4 4 4 5 5 5 5
3 3 3 3 3 4 3 3 4 5 5 6 5 4 4 4 4 5 5 4 4 4 6 6 5 3 4 5 5 5 3 2 2 2 2 3 4 4 4 5 6 6 5
3 3 4 3 3 3 4 4 4 4 5 5 5 5 5 5 5 6 5 4 5 6 7 8 8 8 8 7 5 4 4 4 3 3 3 3 4 4 4 5 6 6 5
2 3 4 4 4 5 5 4 4 5 5 5 5 5 5 5 6 5 5 5 6 6 8 10 10 10 10 9 8 6 5 4 4 4 4 4 4 5 5 5 5 5 5
3 3 4 4 4 5 5 5 5 5 5 5 5 5 5 6 6 6 5 5 5 6 8 10 12 12 11 10 9 8 7 5 4 4 4 4 4 4 5 4 6 5 5
Wind_Direction
56 62 65 62 62 66 68 70 76 76 73 72 72 72 71 68 68 73 72 71 73 66 62 69 66 66 70 66 78 88 98 113 124 119 74 120 166 196 210 235 244 236 226
66 69 67 65 63 63 63 60 66 69 68 70 70 71 73 71 69 73 74 71 74 71 66 67 63 71 64 63 73 80 88 97 122 123 89 59 206 211 187 304 306 248 228
68 75 69 64 61 60 60 61 63 67 67 67 69 70 70 69 70 71 75 74 73 72 70 72 68 74 70 67 72 76 80 88 94 114 101 43 28 28 49 16 15 357 261
69 72 69 65 64 63 63 64 66 69 71 71 71 71 70 68 66 68 71 72 71 70 70 71 69 77 82 79 78 74 81 81 85 93 85 58 43 23 57 41 8 349 330
77 76 72 67 64 62 64 65 66 70 75 74 75 70 65 64 62 67 69 78 78 72 65 65 68 76 77 79 89 87 90 90 88 89 81 61 38 36 32 357 16 339 332
85 83 77 71 68 67 71 70 68 68 70 73 74 73 63 61 61 67 77 79 79 79 72 64 62 56 57 61 75 91 107 115 115 105 99 101 92 166 355 28 41 32 330
84 79 75 77 75 73 81 79 76 76 78 77 75 73 63 47 53 59 69 83 81 79 78 72 68 54 49 52 54 58 64 92 130 139 142 177 191 207 170 34 50 196 242
90 88 87 85 78 75 80 84 84 84 84 84 81 75 64 44 45 56 73 75 74 74 81 87 80 52 45 63 65 56 46 41 73 143 178 207 211 204 186 189 213 276 303
101 101 101 97 88 81 80 81 84 90 87 84 85 78 67 41 43 60 75 78 74 65 65 72 78 64 52 70 72 61 40 13 22 23 260 245 238 218 192 126 71 67 6
114 110 101 94 93 91 89 82 77 91 98 95 83 73 70 52 47 63 79 88 82 69 55 46 56 65 60 69 76 70 41 349 346 355 4 1 337 278 209 185 164 147 192
103 96 93 92 99 101 88 79 89 92 93 91 83 63 58 55 50 62 75 84 95 84 65 30 10 35 47 54 69 76 333 318 338 0 9 10 7 352 305 236 208 174 185
92 87 90 88 90 91 84 76 85 98 96 91 82 61 38 33 45 58 68 76 92 93 71 353 325 355 12 20 29 6 15 36 42 40 36 15 359 330 302 296 267 235 229
93 89 87 78 70 80 91 88 78 84 96 99 95 85 46 26 28 46 57 63 69 69 2 327 339 355 4 3 358 8 30 49 49 45 22 327 293 287 306 326 336 329 306
100 91 88 86 77 68 71 82 90 96 108 116 123 117 82 42 27 26 30 37 36 30 4 347 358 14 28 4 1 17 32 56 86 49 316 310 326 346 354 352 349 349 353
102 96 93 93 98 84 69 62 83 75 150 146 149 148 137 111 352 51 66 35 15 356 356 14 24 23 22 17 14 11 23 36 39 17 9 4 359 355 342 343 355 10 360
113 113 121 119 113 109 100 65 42 61 73 101 129 135 128 152 146 54 37 17 1 14 55 39 19 25 38 36 38 22 14 11 3 11 17 14 2 353 345 346 353 351 316
141 145 147 146 145 144 137 127 98 24 36 56 95 123 139 161 120 7 2 357 8 60 68 39 24 24 34 40 56 47 352 333 348 19 20 7 360 358 359 349 345 340 325
148 163 166 175 173 172 172 169 160 155 156 322 321 255 230 249 299 338 3 20 24 34 64 119 215 269 92 61 18 6 353 357 7 13 13 6 4 359 353 343 336 324 313
154 171 181 186 182 176 176 177 180 182 192 223 279 297 277 290 313 322 19 65 27 352 346 286 236 214 185 76 47 45 39 23 19 21 12 5 359 358 347 336 330 328 329
179 186 169 167 169 171 175 181 187 192 199 209 227 243 262 25 326 319 272 200 204 227 233 220 227 163 137 110 104 88 65 51 42 37 16 5 357 360 346 333 329 325 314
208 228 197 160 182 190 191 196 194 191 199 211 227 231 200 193 228 239 234 220 209 210 199 167 144 116 110 111 109 95 94 77 56 29 6 353 352 348 338 332 324 320 317
202 216 217 213 210 200 199 199 194 197 204 210 227 239 213 201 215 221 225 226 218 203 187 167 159 159 158 148 139 128 119 105 10 347 341 337 336 336 336 337 333 327 327
202 214 224 225 215 212 206 204 198 201 207 212 213 216 208 208 214 216 216 214 203 196 187 172 162 164 159 151 152 155 162 196 232 258 294 316 323 327 328 323 322 322 319
212 217 213 215 214 210 216 224 217 210 207 209 210 209 207 207 212 214 213 208 202 198 193 186 182 180 178 176 176 183 201 221 237 252 272 281 299 308 313 315 314 314 312
237 225 217 218 222 221 221 223 220 215 210 206 206 207 209 210 214 217 213 207 201 200 198 194 192 192 193 196 202 212 223 234 251 268 278 278 286 295 301 304 309 313 315
266 245 233 226 224 220 216 217 218 212 209 210 207 207 207 210 214 216 210 202 200 202 201 201 202 203 205 208 214 222 230 240 257 272 278 276 282 293 302 302 313 314 319
Height
1513 1512 1513 1512 1512 1512 1512 1512 1513 1514 1514 1515 1515 1515 1516 1517 1517 1518 1518 1518 1518 1519 1519 1520 1521 1522 1524 1526 1527 1529 1531 1534 1536 1541 1544 1545 1547 1548 1549 1549 1549 1549 1549
1515 1515 1515 1514 1514 1514 1514 1514 1515 1516 1516 1517 1518 1518 1518 1519 1519 1520 1520 1520 1520 1521 1522 1522 1523 1524 1525 1528 1529 1531 1533 1535 1537 1540 1543 1545 1547 1548 1549 1549 1549 1549 1549
1517 1517 1517 1516 1517 1517 1517 1517 1518 1518 1519 1519 1520 1520 1521 1521 1522 1522 1522 1522 1523 1524 1525 1525 1526 1527 1528 1530 1531 1533 1535 1537 1539 1541 1543 1545 1547 1548 1548 1549 1549 1549 1549
1520 1520 1519 1519 1519 1520 1520 1521 1521 1521 1522 1522 1523 1523 1523 1524 1524 1525 1525 1525 1526 1527 1528 1528 1529 1530 1531 1533 1534 1536 1537 1539 1541 1542 1544 1546 1547 1547 1548 1548 1549 1549 1549
1523 1522 1522 1522 1523 1523 1523 1524 1524 1524 1525 1525 1525 1526 1526 1526 1527 1528 1528 1529 1529 1530 1531 1532 1533 1534 1535 1536 1537 1538 1540 1541 1542 1544 1545 1546 1547 1548 1548 1548 1548 1548 1548
1526 1526 1526 1526 1526 1526 1526 1527 1527 1527 1528 1528 1529 1529 1529 1530 1531 1531 1531 1532 1533 1534 1534 1535 1536 1537 1538 1539 1540 1541 1542 1543 1544 1545 1546 1547 1547 1548 1548 1548 1547 1547 1547
1529 1529 1529 1529 1529 1529 1530 1530 1530 1531 1531 1532 1532 1532 1533 1533 1534 1534 1535 1536 1536 1537 1538 1538 1539 1540 1540 1541 1542 1543 1544 1545 1546 1546 1547 1547 1547 1548 1548 1547 1547 1547 1547
1532 1533 1533 1532 1532 1533 1533 1533 1533 1534 1534 1535 1535 1536 1536 1537 1537 1538 1538 1539 1540 1540 1541 1541 1542 1542 1543 1544 1544 1545 1545 1546 1546 1547 1547 1547 1548 1548 1548 1548 1547 1547 1547
1535 1536 1536 1536 1536 1536 1536 1536 1537 1537 1537 1538 1539 1539 1540 1540 1541 1541 1542 1542 1542 1543 1544 1544 1544 1545 1545 1546 1546 1546 1547 1547 1547 1548 1548 1548 1548 1548 1548 1548 1548 1547 1547
1538 1539 1539 1539 1539 1539 1539 1539 1540 1540 1540 1541 1542 1542 1543 1543 1544 1544 1545 1545 1545 1546 1546 1547 1547 1547 1547 1548 1548 1548 1548 1548 1548 1548 1549 1549 1549 1549 1548 1548 1548 1548 1547
1541 1541 1541 1542 1542 1542 1542 1542 1543 1543 1543 1544 1545 1545 1546 1546 1547 1547 1548 1548 1548 1548 1548 1549 1549 1549 1549 1549 1549 1549 1549 1549 1549 1549 1549 1549 1549 1549 1549 1549 1548 1548 1547
1543 1544 1544 1544 1545 1545 1545 1545 1546 1546 1546 1547 1548 1548 1549 1549 1549 1550 1550 1550 1550 1550 1551 1551 1550 1550 1550 1550 1550 1550 1550 1551 1550 1550 1550 1550 1550 1550 1549 1549 1548 1548 1547
1546 1546 1547 1547 1547 1548 1548 1548 1548 1549 1549 1550 1550 1551 1551 1551 1551 1552 1552 1552 1552 1552 1552 1552 1552 1552 1552 1552 1552 1552 1552 1551 1551 1551 1551 1551 1550 1550 1549 1549 1548 1547 1547
1548 1549 1549 1550 1550 1550 1550 1550 1551 1551 1551 1552 1552 1553 1553 1553 1553 1553 1553 1554 1554 1554 1554 1554 1553 1553 1553 1553 1553 1553 1553 1552 1552 1552 1552 1551 1551 1550 1549 1549 1548 1547 1546
1551 1551 1552 1552 1553 1553 1553 1553 1553 1553 1553 1554 1554 1555 1555 1555 1555 1555 1555 1555 1555 1555 1555 1555 1555 1555 1554 1554 1554 1554 1553 1553 1553 1552 1552 1551 1551 1550 1549 1549 1548 1547 1546
1553 1553 1554 1555 1555 1555 1555 1555 1555 1555 1555 1555 1556 1556 1556 1556 1556 1556 1556 1556 1556 1556 1556 1556 1556 1555 1555 1555 1555 1554 1554 1553 1553 1553 1552 1551 1551 1550 1549 1549 1548 1547 1545
1555 1555 1556 1556 1557 1557 1557 1557 1557 1557 1557 1557 1557 1557 1557 1557 1557 1557 1557 1557 1557 1557 1557 1557 1556 1556 1556 1555 1555 1554 1554 1553 1553 1552 1552 1551 1551 1550 1549 1548 1547 1546 1544
1557 1557 1558 1558 1558 1559 1559 1559 1559 1559 1559 1559 1559 1558 1559 1559 1559 1559 1559 1559 1558 1558 1558 1557 1557 1556 1556 1555 1555 1554 1554 1553 1552 1552 1551 1551 1550 1550 1549 1548 1547 1545 1544
1558 1558 1559 1560 1560 1560 1560 1561 1561 1561 1561 1560 1560 1560 1560 1560 1560 1560 1560 1559 1559 1559 1558 1557 1557 1556 1556 1555 1554 1554 1553 1553 1552 1551 1551 1551 1550 1549 1548 1547 1546 1545 1543
1559 1560 1560 1560 1561 1561 1561 1562 1562 1562 1562 1562 1562 1562 1561 1561 1561 1561 1560 1560 1559 1559 1558 1557 1556 1556 1555 1555 1554 1553 1553 1552 1552 1551 1551 1550 1549 1549 1547 1546 1545 1544 1542
1560 1560 1561 1561 1562 1562 1562 1562 1562 1562 1562 1562 1562 1562 1562 1562 1561 1561 1560 1560 1559 1558 1557 1557 1556 1555 1555 1554 1553 1552 1552 1551 1551 1550 1550 1549 1548 1547 1546 1545 1544 1543 1541
1560 1561 1561 1562 1562 1562 1562 1563 1563 1563 1563 1562 1562 1562 1562 1562 1561 1561 1560 1559 1558 1557 1557 1556 1555 1554 1553 1553 1552 1551 1550 1550 1549 1549 1548 1548 1547 1546 1545 1544 1543 1542 1540
1561 1561 1561 1562 1562 1562 1562 1563 1563 1562 1562 1562 1562 1562 1562 1561 1561 1560 1559 1558 1558 1557 1556 1555 1554 1553 1552 1551 1551 1550 1549 1548 1548 1547 1546 1546 1545 1545 1544 1543 1542 1540 1539
1560 1561 1561 1561 1561 1562 1562 1562 1562 1562 1562 1562 1562 1561 1561 1560 1560 1559 1558 1558 1557 1556 1555 1554 1553 1552 1551 1550 1549 1548 1547 1547 1546 1545 1545 1544 1544 1543 1543 1542 1541 1540 1538
1559 1560 1560 1560 1560 1561 1561 1561 1561 1561 1561 1561 1561 1560 1560 1559 1559 1558 1557 1557 1556 1555 1554 1553 1552 1551 1550 1549 1548 1547 1546 1545 1544 1544 1543 1543 1543 1542 1541 1541 1540 1539 1537
1558 1558 1559 1559 1559 1559 1559 1560 1560 1560 1559 1559 1559 1559 1558 1558 1557 1557 1556 1555 1555 1554 1553 1552 1551 1550 1549 1548 1546 1545 1544 1544 1543 1543 1542 1542 1541 1541 1540 1539 1538 1537 1536